Weather History for CWSP - March, 2013

Change the Weather History Date:

Monday, March 18, 2013

  Actual Average Record
Temperature  
Mean Temperature 40 °F -  
Max Temperature 44 °F - - ()
Min Temperature 37 °F - - ()
Degree Days  
Heating Degree Days 24    
Moisture  
Dew Point 34 °F    
Average Humidity 71    
Maximum Humidity 89    
Minimum Humidity 46    
Precipitation  
Precipitation 0.12 in - - ()
Sea Level Pressure  
Sea Level Pressure 30.15 in    
Wind  
Wind Speed 21 mph ()    
Max Wind Speed 33 mph    
Max Gust Speed 39 mph    
T = Trace of Precipitation, MM = Missing Value Source: Averaged Metar Reports

Daily Weather History Graph

Daily Weather History Graph

Search for Another Location

Airport or City:

Trip Planner

Search our weather history database for the weather conditions in past years. The results will help you decide how hot, cold, wet, or windy it might be!

Date:

Astronomy

Mar. 18, 2013 Rise Set
Actual Time 7:21 AM PDT 7:26 PM PDT
Civil Twilight 6:50 AM PDT 7:57 PM PDT
Nautical Twilight 6:14 AM PDT 8:34 PM PDT
Astronomical Twilight 5:36 AM PDT 9:11 PM PDT
Moon 10:59 AM PDT (3/18) 1:56 AM PDT (3/18)
Length of Visible Light 13h 06m
Length of Day
12h 04m
Waxing Crescent, 41% of the Moon is Illuminated
Mar 18
Waxing Crescent
Mar 19
First Quarter
Mar 27
Full
Apr 2
Last Quarter
Apr 10
New

Hourly Weather History & Observations

Time (PDT) Temp. Windchill Dew Point Humidity Pressure Visibility Wind Dir Wind Speed Gust Speed Precip Events Conditions
12:00 AM 41.2 °F 33.4 °F 36.3 °F 83% 30.14 in - West 15.0 mph - N/A   Unknown
1:00 AM 41.7 °F 33.7 °F 36.7 °F 82% 30.10 in - WSW 16.1 mph - N/A   Unknown
2:00 AM 42.3 °F 32.6 °F 37.0 °F 82% 30.07 in - WSW 24.2 mph - N/A   Unknown
3:00 AM 42.6 °F 32.6 °F 37.9 °F 83% 30.06 in - WSW 26.5 mph - N/A   Unknown
4:00 AM 42.3 °F 31.2 °F 39.2 °F 89% 30.04 in - West 32.2 mph 39.1 mph 0.07 in   Unknown
5:00 AM 44 °F - 39 °F 78% 30.04 in - West 33.4 mph - -  
5:00 AM 43.9 °F 33.2 °F 39.4 °F 84% 30.04 in - West 33.4 mph - 0.03 in   Unknown
6:00 AM 42.8 °F 32.5 °F 38.5 °F 85% 30.06 in - WNW 28.8 mph 36.8 mph N/A   Unknown
7:00 AM 42.8 °F 32.9 °F 37.0 °F 80% 30.08 in - WNW 26.5 mph - N/A   Unknown
8:00 AM 43.5 °F 32.9 °F 35.1 °F 72% 30.09 in - West 32.2 mph 38.0 mph N/A   Unknown
9:00 AM 42.8 °F 33.3 °F 36.0 °F 77% 30.13 in - WNW 24.2 mph - N/A   Unknown
10:00 AM 43.0 °F 33.5 °F 35.4 °F 75% 30.14 in - WNW 24.2 mph - N/A   Unknown
11:00 AM 44 °F - 34 °F 57% 30.16 in - West 29.9 mph - -  
11:00 AM 43.7 °F 33.5 °F 33.6 °F 68% 30.16 in - West 29.9 mph - N/A   Unknown
12:00 PM 43.9 °F 33.8 °F 31.3 °F 61% 30.17 in - West 29.9 mph - N/A   Unknown
1:00 PM 43.9 °F 34.1 °F 31.3 °F 61% 30.18 in - West 27.6 mph - N/A   Unknown
2:00 PM 44.2 °F 35.0 °F 34.0 °F 67% 30.19 in - WNW 25.3 mph - N/A   Unknown
3:00 PM 44.2 °F 34.4 °F 34.2 °F 68% 30.19 in - WNW 28.8 mph - N/A   Unknown
4:00 PM 44.4 °F 35.3 °F 34.2 °F 67% 30.21 in - WNW 25.3 mph - N/A   Unknown
5:00 PM 44 °F - 33 °F 55% 30.22 in - WNW 24.2 mph - -  
5:00 PM 44.4 °F 35.5 °F 33.1 °F 64% 30.22 in - WNW 24.2 mph - N/A   Unknown
6:00 PM 44.2 °F 35.9 °F 32.9 °F 64% 30.22 in - WNW 20.7 mph - N/A   Unknown
7:00 PM 43.7 °F 35.4 °F 33.1 °F 66% 30.22 in - WNW 19.6 mph - N/A   Unknown
8:00 PM 41.7 °F 39.8 °F 31.5 °F 67% 30.23 in - NW 3.5 mph - N/A   Unknown
9:00 PM 40.6 °F - 30.2 °F 66% 30.24 in - North 2.3 mph - N/A   Unknown
10:00 PM 40.5 °F - 29.7 °F 65% 30.23 in - NNW 2.3 mph - N/A   Unknown
11:00 PM 41 °F - 27 °F 46% 30.22 in - ESE 1.2 mph - -